When you browse on this site, cookies collect data to enhance your experience and personalize the content and advertising you see.
Visit our Privacy Policy to learn more. By continuing to use the site, you agree to this use of cookies and data.
  • In United Kingdom
  • List of Countries
  • For 7 days
  • Water Temperature
  • Weather Map
  • Weather Widgets
  • user-avatar
    Login

    Hourly Weather Mansa

    Today, 10 December, Tuesday

    Time Temperature Precipitation Wind Pressure Humidity
    00:00 +19°C° 0.4 mm 2 mps 657 mmHg 97%
    01:00 +19°C° 0.4 mm 2 mps 657 mmHg 97%
    02:00 +20°C° 0 mm 1 mps 657 mmHg 97%
    03:00 +19°C° 0.2 mm 2 mps 657 mmHg 97%
    04:00 +19°C° 0.2 mm 2 mps 657 mmHg 97%
    05:00 +19°C° 0.2 mm 2 mps 657 mmHg 98%
    06:00 +19°C° 0.1 mm 2 mps 658 mmHg 97%
    07:00 +19°C° 0.1 mm 2 mps 658 mmHg 96%
    08:00 +21°C° 0 mm 1 mps 659 mmHg 94%
    09:00 +22°C° 0.2 mm 1 mps 659 mmHg 91%
    10:00 +22°C° 0.2 mm 1 mps 659 mmHg 88%
    11:00 +23°C° 0.2 mm 1 mps 659 mmHg 85%
    12:00 +24°C° 0.9 mm 1 mps 659 mmHg 82%
    13:00 +26°C° 0.9 mm 1 mps 658 mmHg 79%
    14:00 +26°C° 0 mm 2 mps 658 mmHg 77%
    15:00 +25°C° 1.2 mm 2 mps 657 mmHg 81%
    16:00 +25°C° 1.2 mm 1 mps 657 mmHg 85%
    17:00 +24°C° 1.2 mm 1 mps 656 mmHg 89%
    18:00 +23°C° 0.1 mm 1 mps 657 mmHg 91%
    19:00 +22°C° 0.1 mm 1 mps 657 mmHg 93%
    20:00 +19°C° 0.1 mm 0 mps 658 mmHg 95%
    21:00 +19°C° 0 mm 0 mps 658 mmHg 95%
    22:00 +18°C° 0 mm 0 mps 658 mmHg 95%
    23:00 +18°C° 0 mm 0 mps 658 mmHg 95%

    Tomorrow, 11 December, Wednesday

    Time Temperature Precipitation Wind Pressure Humidity
    00:00 +20°C° 0 mm 1 mps 658 mmHg 96%
    01:00 +20°C° 0 mm 1 mps 657 mmHg 96%
    02:00 +20°C° 0 mm 1 mps 657 mmHg 97%
    03:00 +19°C° 0 mm 1 mps 657 mmHg 97%
    04:00 +19°C° 0 mm 1 mps 657 mmHg 97%
    05:00 +19°C° 0 mm 1 mps 657 mmHg 97%
    06:00 +20°C° 0 mm 1 mps 658 mmHg 96%
    07:00 +21°C° 0 mm 1 mps 658 mmHg 94%
    08:00 +22°C° 0 mm 1 mps 659 mmHg 93%
    09:00 +23°C° 0.3 mm 1 mps 659 mmHg 88%
    10:00 +24°C° 0.3 mm 1 mps 659 mmHg 83%
    11:00 +26°C° 0.3 mm 2 mps 659 mmHg 79%
    12:00 +26°C° 0.9 mm 1 mps 658 mmHg 77%
    13:00 +27°C° 0.9 mm 1 mps 658 mmHg 75%
    14:00 +28°C° 0.9 mm 1 mps 657 mmHg 73%
    15:00 +27°C° 1.3 mm 1 mps 657 mmHg 78%
    16:00 +26°C° 1.3 mm 1 mps 657 mmHg 83%
    17:00 +25°C° 1.3 mm 1 mps 656 mmHg 88%
    18:00 +24°C° 0.5 mm 1 mps 657 mmHg 90%
    19:00 +23°C° 0.5 mm 1 mps 657 mmHg 91%
    20:00 +22°C° 0.5 mm 1 mps 657 mmHg 93%
    21:00 +21°C° 0.4 mm 1 mps 658 mmHg 94%
    22:00 +21°C° 0.4 mm 1 mps 658 mmHg 94%
    23:00 +20°C° 0.4 mm 2 mps 658 mmHg 95%

    Day after tomorrow, 12 December, Thursday

    Time Temperature Precipitation Wind Pressure Humidity
    00:00 +20°C° 2.9 mm 2 mps 658 mmHg 96%
    01:00 +19°C° 2.9 mm 2 mps 658 mmHg 97%
    02:00 +20°C° 2.9 mm 1 mps 658 mmHg 98%
    03:00 +20°C° 5.1 mm 1 mps 658 mmHg 98%
    04:00 +20°C° 5.1 mm 1 mps 658 mmHg 98%
    05:00 +19°C° 5.1 mm 1 mps 657 mmHg 98%
    06:00 +20°C° 0.9 mm 1 mps 658 mmHg 97%
    07:00 +20°C° 0.9 mm 1 mps 659 mmHg 96%
    08:00 +21°C° 0.9 mm 1 mps 659 mmHg 95%
    09:00 +21°C° 0.5 mm 1 mps 659 mmHg 94%
    10:00 +22°C° 0.5 mm 1 mps 659 mmHg 92%
    11:00 +23°C° 0.5 mm 1 mps 659 mmHg 90%
    12:00 +23°C° 1.6 mm 2 mps 658 mmHg 90%
    13:00 +23°C° 1.6 mm 2 mps 658 mmHg 90%
    14:00 +24°C° 1.6 mm 2 mps 657 mmHg 90%
    15:00 +23°C° 0.6 mm 2 mps 657 mmHg 91%
    16:00 +23°C° 0.6 mm 2 mps 657 mmHg 91%
    17:00 +23°C° 0.6 mm 2 mps 657 mmHg 92%
    18:00 +22°C° 0 mm 1 mps 657 mmHg 94%
    19:00 +21°C° 0 mm 1 mps 658 mmHg 96%
    20:00 +21°C° 0 mm 1 mps 658 mmHg 98%
    21:00 +19°C° 0.3 mm 0 mps 658 mmHg 97%
    22:00 +19°C° 0.3 mm 0 mps 658 mmHg 97%
    23:00 +18°C° 0.3 mm 0 mps 659 mmHg 97%

    13 December, Friday

    Time Temperature Precipitation Wind Pressure Humidity
    00:00 +19°C° 0.1 mm 0 mps 658 mmHg 96%
    01:00 +19°C° 0.1 mm 0 mps 658 mmHg 96%
    02:00 +19°C° 0.1 mm 0 mps 658 mmHg 95%
    03:00 +18°C° 0 mm 0 mps 658 mmHg 96%
    04:00 +20°C° 0 mm 1 mps 658 mmHg 96%
    05:00 +20°C° 0 mm 1 mps 658 mmHg 97%
    06:00 +21°C° 0.5 mm 1 mps 659 mmHg 96%
    07:00 +21°C° 0.5 mm 1 mps 659 mmHg 95%
    08:00 +22°C° 0.5 mm 1 mps 660 mmHg 94%
    09:00 +23°C° 0.9 mm 1 mps 660 mmHg 90%
    10:00 +24°C° 0.9 mm 1 mps 660 mmHg 87%
    11:00 +25°C° 0.9 mm 1 mps 660 mmHg 83%
    12:00 +25°C° 0.7 mm 1 mps 659 mmHg 83%
    13:00 +25°C° 0.7 mm 1 mps 659 mmHg 82%
    14:00 +23°C° 0.7 mm 0 mps 658 mmHg 81%
    15:00 +25°C° 0.1 mm 1 mps 658 mmHg 83%
    16:00 +24°C° 0.1 mm 1 mps 658 mmHg 86%
    17:00 +24°C° 0.1 mm 1 mps 657 mmHg 88%
    18:00 +23°C° 0 mm 1 mps 658 mmHg 89%
    19:00 +22°C° 0 mm 1 mps 658 mmHg 90%
    20:00 +21°C° 0 mm 1 mps 658 mmHg 91%
    21:00 +21°C° 0 mm 1 mps 658 mmHg 91%
    22:00 +21°C° 0 mm 1 mps 659 mmHg 91%
    23:00 +18°C° 0 mm 0 mps 659 mmHg 92%

    14 December, Saturday

    Time Temperature Precipitation Wind Pressure Humidity
    00:00 +18°C° 0 mm 0 mps 658 mmHg 91%
    01:00 +18°C° 0 mm 0 mps 658 mmHg 91%
    02:00 +18°C° 0 mm 0 mps 658 mmHg 91%
    03:00 +18°C° 0.3 mm 0 mps 658 mmHg 92%
    04:00 +18°C° 0.3 mm 0 mps 658 mmHg 93%
    05:00 +18°C° 0.3 mm 0 mps 658 mmHg 94%
    06:00 +18°C° 0.4 mm 0 mps 659 mmHg 94%
    07:00 +19°C° 0.4 mm 0 mps 659 mmHg 94%
    08:00 +21°C° 0.4 mm 1 mps 660 mmHg 94%
    09:00 +22°C° 0.2 mm 1 mps 660 mmHg 91%
    10:00 +23°C° 0.2 mm 1 mps 660 mmHg 87%
    11:00 +24°C° 0.2 mm 1 mps 659 mmHg 83%
    12:00 +25°C° 0.1 mm 1 mps 659 mmHg 77%
    13:00 +26°C° 0.1 mm 1 mps 659 mmHg 72%
    14:00 +27°C° 0.1 mm 2 mps 658 mmHg 67%
    15:00 +26°C° 0 mm 1 mps 658 mmHg 70%
    16:00 +26°C° 0 mm 1 mps 658 mmHg 73%
    17:00 +24°C° 0 mm 0 mps 657 mmHg 77%
    18:00 +22°C° 0.6 mm 0 mps 658 mmHg 81%
    19:00 +21°C° 0.6 mm 0 mps 658 mmHg 86%
    20:00 +19°C° 0.6 mm 0 mps 658 mmHg 91%
    21:00 +19°C° 1.4 mm 0 mps 658 mmHg 92%
    22:00 +21°C° 1.4 mm 1 mps 658 mmHg 93%
    23:00 +21°C° 1.4 mm 1 mps 659 mmHg 94%

    15 December, Sunday

    Time Temperature Precipitation Wind Pressure Humidity
    00:00 +21°C° 0.5 mm 1 mps 658 mmHg 93%
    01:00 +19°C° 0.5 mm 0 mps 658 mmHg 92%
    02:00 +19°C° 0.5 mm 0 mps 658 mmHg 91%
    03:00 +19°C° 1 mm 0 mps 658 mmHg 92%
    04:00 +20°C° 1 mm 1 mps 658 mmHg 94%
    05:00 +20°C° 1 mm 1 mps 658 mmHg 95%
    06:00 +21°C° 0.2 mm 1 mps 659 mmHg 93%
    07:00 +22°C° 0.2 mm 1 mps 659 mmHg 91%
    08:00 +21°C° 0.2 mm 0 mps 660 mmHg 89%
    09:00 +22°C° 1.5 mm 0 mps 660 mmHg 86%
    10:00 +24°C° 1.5 mm 0 mps 660 mmHg 83%
    11:00 +25°C° 1.5 mm 0 mps 660 mmHg 81%
    12:00 +27°C° 1.6 mm 1 mps 659 mmHg 79%
    13:00 +27°C° 1.6 mm 1 mps 658 mmHg 78%
    14:00 +27°C° 1.6 mm 1 mps 658 mmHg 76%
    15:00 +27°C° 0.8 mm 1 mps 658 mmHg 77%
    16:00 +25°C° 0.8 mm 0 mps 657 mmHg 78%
    17:00 +25°C° 0.8 mm 0 mps 657 mmHg 79%
    18:00 +23°C° 0.5 mm 0 mps 657 mmHg 82%
    19:00 +21°C° 0.5 mm 0 mps 657 mmHg 84%
    20:00 +20°C° 0.5 mm 0 mps 657 mmHg 87%
    21:00 +20°C° 0.1 mm 0 mps 658 mmHg 88%
    22:00 +21°C° 0.1 mm 1 mps 658 mmHg 89%
    23:00 +21°C° 0.1 mm 1 mps 658 mmHg 89%
    Show more